Temperature
16 16 16 16 16 15 15 15 15 15 15 16 16 15 15 15 15 15 15 15 15 15 15 15 15 15 15 15 15 15 15 15 15 15 15 15 15 15 15 15 15 15 15
16 16 16 16 16 15 15 15 15 15 15 15 15 15 15 15 15 15 15 15 15 15 15 15 15 15 15 15 15 15 15 15 15 15 15 15 15 15 15 15 15 15 15
16 16 16 16 15 15 15 15 15 15 15 15 15 15 15 15 15 15 15 15 15 15 15 15 15 15 15 15 15 15 15 15 15 15 15 15 15 15 15 15 15 15 15
16 15 15 15 15 15 15 15 15 14 14 14 14 15 15 15 15 15 15 15 15 15 15 15 15 15 15 15 15 15 15 15 15 15 15 15 15 15 15 14 15 15 15
15 15 15 15 15 15 14 14 14 14 14 14 14 14 14 14 15 15 14 14 14 15 15 15 15 15 15 15 15 14 15 14 14 14 14 14 14 14 14 14 14 14 14
15 15 15 14 14 14 14 14 14 14 14 14 14 14 14 14 14 14 14 14 14 14 14 14 14 14 14 14 14 14 14 14 14 14 14 14 14 14 14 14 14 14 14
15 15 14 14 14 14 14 14 14 14 14 14 14 14 14 14 14 14 14 14 14 14 14 14 14 14 14 14 14 14 14 14 14 14 14 14 14 14 14 14 14 14 13
14 14 14 14 14 14 13 13 13 13 13 13 13 14 14 14 14 14 14 14 14 14 14 14 14 14 14 14 14 14 14 14 14 14 14 14 13 13 14 13 13 13 13
14 14 14 14 13 13 13 13 13 13 13 13 13 13 13 13 13 14 14 14 14 13 14 13 14 14 13 14 14 13 14 14 14 14 13 13 13 13 13 13 13 13 13
14 13 13 13 13 13 13 13 13 13 12 13 13 13 13 13 13 13 13 13 13 13 13 13 13 13 13 13 13 13 13 13 13 13 13 13 13 13 13 13 13 13 13
13 13 13 13 13 13 13 12 12 12 12 12 12 12 13 13 13 13 13 13 13 13 13 13 13 13 13 13 13 13 13 13 13 13 13 13 13 13 13 13 13 13 13
13 13 13 13 13 12 12 12 12 12 12 12 12 12 12 12 13 13 12 12 12 13 13 13 13 13 13 13 13 13 13 13 13 13 13 13 13 13 13 13 13 12 12
13 13 13 13 12 12 12 12 12 12 12 12 12 12 12 12 12 12 12 12 12 12 13 13 13 13 13 13 13 13 13 13 13 13 13 13 13 12 12 12 12 12 12
13 13 13 13 12 12 12 12 12 12 12 12 12 12 12 12 12 12 12 12 12 12 12 12 12 12 13 13 13 13 13 13 13 13 13 13 13 12 12 12 12 12 12
13 13 13 12 12 12 12 12 12 12 12 12 12 12 12 12 12 12 12 12 12 12 12 12 12 12 12 12 12 12 12 12 12 12 13 13 12 12 12 12 12 12 12
13 13 12 12 12 12 12 12 12 12 12 12 12 12 12 12 12 12 12 12 12 12 12 12 12 12 12 12 12 12 12 12 12 12 12 12 12 12 12 12 12 12 12
13 13 12 12 12 12 12 12 12 12 11 12 12 12 12 11 11 11 11 11 12 12 12 12 12 12 12 12 12 12 12 12 12 12 12 12 12 12 12 12 12 12 11
13 12 12 12 12 12 12 12 12 11 11 11 11 11 11 11 11 11 11 11 11 11 11 11 11 12 12 12 12 11 12 12 12 12 12 12 12 12 12 12 12 11 11
12 12 12 12 12 12 12 12 11 11 11 11 11 11 11 11 11 11 11 11 11 11 11 11 11 11 11 11 11 11 11 11 11 11 11 11 11 11 11 11 11 11 11
12 12 12 12 12 12 12 11 11 11 11 11 11 11 11 11 11 11 11 11 11 11 11 11 11 11 11 11 11 11 11 11 11 11 11 11 11 11 11 11 11 11 11
12 12 12 11 11 11 11 11 11 11 11 11 11 11 11 11 11 11 11 11 11 11 10 10 10 10 10 11 11 11 11 11 11 11 11 11 11 11 11 11 11 11 11
11 11 11 11 11 11 11 11 11 11 11 11 11 11 11 11 11 11 11 11 11 10 10 10 10 10 10 10 10 10 10 10 10 10 10 11 11 11 11 11 11 11 11
11 11 11 11 11 11 11 11 11 11 11 10 10 10 10 10 11 11 10 10 10 10 10 10 10 10 10 10 10 10 10 10 10 10 10 10 10 10 10 10 10 10 10
11 11 11 10 10 10 10 10 10 10 10 10 10 10 10 10 10 10 10 10 10 10 10 10 10 10 10 10 10 10 10 10 10 9 9 9 10 10 10 10 10 10 10
10 10 10 10 10 10 10 10 10 10 10 10 10 10 10 10 10 10 10 10 10 10 10 10 10 10 10 9 9 9 9 9 9 9 9 9 9 9 9 10 10 10 10
10 10 10 10 10 10 10 9 9 9 9 9 9 9 9 9 9 9 9 9 9 9 9 9 9 9 9 9 9 9 9 9 9 9 9 9 9 9 9 9 9 9 9
Wind_Speed
2 2 2 3 3 3 3 2 3 4 4 5 6 6 5 6 6 8 7 9 8 8 7 7 6 6 6 6 7 7 7 8 9 10 10 11 11 11 9 9 9 8 8
2 2 2 3 3 4 4 3 3 3 3 3 4 5 5 5 5 6 7 7 8 7 7 6 6 6 6 7 7 8 8 8 9 10 10 10 11 10 10 10 9 9 8
4 3 3 3 3 4 5 4 4 3 3 3 4 4 4 4 4 4 5 5 5 6 6 6 6 6 6 7 8 8 9 10 9 9 9 10 10 10 10 10 10 9 9
6 4 3 3 4 5 3 3 3 3 3 3 3 3 3 3 3 3 4 4 5 5 6 7 7 7 7 6 7 8 9 9 9 9 9 10 10 9 9 9 10 11 11
7 5 3 3 4 3 3 3 3 2 2 2 2 2 2 2 2 3 3 4 4 5 6 6 7 7 7 7 7 7 8 8 8 9 10 10 10 10 10 10 10 11 12
6 5 3 3 4 3 3 3 3 2 1 1 2 2 1 1 2 3 3 3 4 5 6 6 6 6 7 6 7 7 7 7 8 9 9 9 10 10 10 11 11 12 12
5 4 3 3 3 3 3 3 2 2 2 1 1 1 1 1 2 2 2 2 3 4 5 5 5 6 6 6 6 6 6 7 7 8 8 8 9 9 9 10 10 11 11
5 4 3 3 2 2 2 2 3 2 2 2 1 1 1 2 2 1 2 2 2 3 3 3 4 6 7 6 5 5 5 6 6 7 8 8 8 8 8 9 9 10 10
4 4 3 3 2 1 1 1 1 1 1 2 2 1 1 0 2 2 1 1 2 2 1 2 4 6 7 7 7 5 5 5 6 7 8 8 8 8 8 8 8 8 9
3 3 2 2 1 1 1 1 2 1 1 2 2 2 1 1 1 1 2 2 1 2 1 1 2 5 6 6 6 6 5 5 6 7 7 7 8 8 8 7 7 8 8
2 2 2 1 1 1 1 1 2 1 1 1 1 2 2 2 1 1 1 2 2 1 1 1 2 3 4 5 6 6 6 6 6 6 6 7 7 7 7 7 7 7 7
1 1 1 1 0 1 1 1 0 0 0 1 1 1 1 1 1 0 1 2 1 2 2 1 1 2 4 5 5 5 7 6 6 5 6 6 6 6 6 7 7 6 7
1 2 1 1 0 1 1 0 0 0 1 1 1 1 1 1 1 0 0 1 2 2 1 1 2 3 3 5 5 5 6 7 6 5 5 6 6 6 6 6 6 6 6
2 2 2 1 1 1 1 0 0 1 1 1 1 1 1 2 1 0 0 0 2 2 1 1 1 2 4 5 5 6 5 6 6 5 5 6 6 6 5 6 6 5 5
1 2 2 2 2 2 1 1 0 1 1 1 0 0 0 1 1 1 0 1 1 1 2 2 1 1 3 5 6 6 5 6 6 6 5 6 7 6 6 5 5 5 5
2 3 3 3 3 3 2 1 0 1 1 1 0 1 1 1 1 1 1 1 1 2 2 2 1 1 1 3 6 5 6 7 7 8 7 7 8 8 7 6 6 6 5
1 2 2 2 2 2 2 2 2 1 1 2 2 1 2 1 1 1 1 1 1 1 2 2 1 1 1 1 2 3 6 6 6 8 9 9 8 9 9 8 7 7 7
2 1 1 1 1 2 3 3 3 2 2 2 2 2 3 2 2 1 1 2 2 2 2 3 2 2 2 3 2 2 3 5 5 8 9 10 9 9 10 10 9 8 8
2 1 1 2 2 2 2 2 3 3 3 3 3 3 3 2 2 2 2 2 2 2 1 2 3 2 2 2 2 2 2 2 4 6 8 9 10 10 10 11 10 9 9
2 2 2 2 2 2 2 2 2 2 2 2 3 3 2 2 2 2 2 2 2 1 1 2 2 2 2 2 2 2 2 2 2 4 5 6 8 9 10 11 11 11 10
3 3 2 2 2 2 2 2 2 2 2 2 2 2 2 1 1 1 1 2 2 1 1 2 2 2 2 1 2 2 3 2 3 3 3 3 4 5 7 10 11 12 12
2 2 2 2 2 2 2 2 1 2 3 3 3 3 2 2 1 1 2 2 3 3 3 2 2 3 3 2 2 2 2 2 2 2 3 3 4 4 5 8 10 12 12
2 2 2 2 2 1 1 2 3 2 3 3 3 2 2 1 1 1 3 4 4 4 4 3 3 4 3 4 4 4 3 3 3 3 3 3 3 4 5 8 11 12 12
2 2 2 3 2 2 2 3 3 3 3 3 3 2 2 1 0 0 1 2 3 4 5 4 3 4 4 4 5 5 5 4 2 2 3 3 3 3 3 5 10 12 12
2 2 2 2 1 1 2 3 2 2 3 3 3 2 2 1 0 0 1 2 3 3 4 4 5 5 6 5 3 2 2 2 2 2 2 3 2 2 2 3 7 11 13
2 1 2 2 1 1 2 2 2 2 2 3 2 2 2 1 2 1 1 2 3 3 3 4 4 5 4 5 4 3 4 3 2 2 2 2 2 1 1 2 3 6 8
Wind_Direction
56 63 74 56 63 61 51 32 47 50 41 39 45 52 52 67 82 86 83 75 77 75 72 78 83 86 88 94 91 89 92 91 87 82 81 88 89 87 84 83 85 87 88
52 52 60 56 48 44 44 49 54 52 49 41 30 38 41 52 72 90 99 89 79 77 75 79 85 88 90 89 86 85 89 96 95 93 87 85 85 83 80 80 79 79 83
54 52 55 54 46 46 43 40 42 46 44 39 36 33 36 41 51 76 103 107 96 87 88 87 90 92 92 88 87 87 88 89 94 93 89 87 85 83 80 79 78 79 80
63 53 60 50 42 44 45 41 44 37 34 34 25 24 26 31 27 54 88 101 103 97 102 105 98 96 93 91 91 91 92 90 93 92 92 91 88 86 85 84 82 83 83
69 57 52 49 47 41 39 36 45 47 33 29 20 32 29 29 6 37 53 72 86 102 111 117 112 102 97 93 96 98 96 96 97 98 97 96 93 90 89 87 85 86 86
71 69 50 46 45 53 45 34 45 35 39 24 14 32 19 26 39 25 26 47 64 88 98 108 121 111 103 97 95 100 104 103 105 106 105 102 99 96 93 90 89 89 89
68 77 65 53 49 48 43 36 41 24 8 4 36 15 349 26 83 42 33 30 36 65 89 108 118 117 112 108 102 102 112 112 115 117 114 112 107 103 99 96 95 94 94
53 65 70 80 76 61 39 25 37 21 348 3 21 28 9 360 359 6 65 36 23 35 50 79 94 105 112 106 105 110 115 119 124 127 125 120 114 111 108 104 103 101 101
58 53 54 67 75 71 65 40 78 65 346 341 15 54 78 264 322 342 57 65 37 18 12 54 80 91 102 106 101 97 106 116 126 129 129 128 124 120 114 111 110 107 105
77 64 54 62 74 88 74 357 53 17 34 340 342 3 29 111 126 333 339 12 41 22 4 29 69 87 93 97 106 106 112 119 129 132 134 136 133 130 125 123 118 112 109
86 76 62 57 68 89 78 61 49 12 6 356 336 336 352 350 337 141 304 323 349 350 338 348 80 81 100 108 113 120 123 126 134 140 139 140 143 146 144 139 132 125 121
144 98 71 81 93 103 72 84 102 342 345 336 334 340 336 343 312 279 275 295 298 286 287 248 129 114 113 110 117 122 137 135 132 138 142 144 149 152 152 151 144 138 134
165 184 146 169 128 105 97 100 181 227 251 282 278 293 333 329 319 312 305 294 295 270 252 244 173 132 127 117 123 136 147 145 141 135 143 145 146 146 150 152 148 145 141
173 172 173 187 151 88 54 46 267 245 228 247 269 260 306 304 318 13 162 214 311 306 290 257 230 154 131 134 149 147 151 160 152 152 154 159 156 153 153 160 159 159 158
191 177 188 189 172 147 157 111 355 317 326 283 275 236 249 277 304 298 273 189 185 268 281 254 260 196 134 142 161 157 159 173 173 172 171 172 171 169 168 170 170 167 164
208 195 203 197 185 172 167 147 159 328 320 294 295 300 284 275 275 254 262 273 217 209 247 258 234 216 150 162 181 180 173 179 184 186 186 183 182 180 179 178 180 182 175
212 212 221 205 188 183 174 170 187 207 242 265 253 244 259 264 259 262 266 265 272 250 253 277 266 230 158 163 166 185 178 170 184 193 195 194 190 191 190 189 192 194 189
204 215 217 215 212 203 190 189 205 214 227 253 258 247 242 246 244 261 254 244 246 250 234 266 274 253 212 185 180 202 190 191 192 200 200 200 200 200 200 199 199 200 198
208 214 220 225 227 229 213 209 206 216 221 234 240 242 247 234 237 257 246 248 249 258 243 257 270 258 228 189 183 222 229 211 209 201 200 204 207 207 206 203 202 201 202
213 218 219 228 226 217 223 242 241 239 236 247 247 243 239 233 222 238 241 244 247 248 251 264 270 258 239 208 164 200 242 244 234 206 195 204 207 209 211 206 204 207 207
222 223 226 230 231 228 239 253 244 261 261 261 267 258 236 229 239 249 259 237 236 236 239 248 262 267 248 206 207 206 217 233 243 208 183 206 196 199 210 212 209 211 211
227 225 223 230 246 264 275 292 302 254 253 254 263 262 245 212 245 315 323 279 232 222 227 226 243 253 250 225 211 209 209 204 246 223 174 212 187 198 207 209 209 207 210
233 242 245 232 229 259 279 297 301 277 253 244 248 258 270 252 197 245 281 284 273 257 241 222 229 241 249 226 204 211 215 211 226 218 168 222 206 208 212 211 204 200 203
240 231 246 236 209 229 279 301 296 276 269 254 246 245 241 226 153 106 301 292 278 261 243 241 245 258 259 241 207 202 209 220 235 202 157 201 213 212 213 210 202 199 202
253 239 255 251 217 237 290 298 306 268 273 270 260 254 252 213 310 53 274 278 277 275 261 253 250 262 273 266 239 191 192 188 221 221 192 186 208 205 210 212 207 205 205
247 248 260 259 234 219 292 292 290 253 273 278 280 284 282 311 4 15 282 281 279 281 295 294 278 271 270 275 256 214 200 201 199 220 213 184 194 171 238 223 200 204 204
Height
1527 1527 1527 1527 1527 1527 1527 1527 1527 1527 1527 1527 1527 1527 1527 1526 1526 1526 1525 1525 1525 1525 1524 1524 1524 1524 1525 1525 1525 1525 1525 1525 1524 1523 1521 1521 1524 1526 1528 1529 1530 1531 1531
1527 1527 1527 1527 1527 1527 1527 1527 1527 1527 1527 1527 1527 1527 1527 1527 1526 1526 1526 1525 1525 1525 1525 1525 1524 1525 1525 1525 1525 1525 1525 1525 1525 1525 1525 1525 1526 1528 1529 1530 1531 1532 1532
1527 1527 1527 1527 1527 1527 1527 1527 1527 1527 1527 1527 1527 1527 1527 1527 1527 1526 1526 1526 1525 1525 1525 1525 1525 1525 1525 1526 1526 1526 1526 1526 1527 1527 1527 1527 1528 1529 1530 1531 1531 1532 1532
1527 1527 1527 1527 1527 1527 1527 1527 1527 1527 1527 1527 1527 1527 1527 1527 1527 1527 1526 1526 1525 1525 1525 1525 1525 1526 1526 1526 1527 1527 1527 1527 1528 1528 1528 1529 1529 1530 1531 1532 1532 1533 1533
1527 1527 1527 1527 1527 1527 1527 1527 1527 1527 1527 1527 1527 1527 1527 1527 1527 1527 1526 1526 1526 1525 1525 1525 1526 1526 1526 1527 1527 1527 1528 1528 1528 1529 1529 1530 1530 1531 1532 1532 1533 1533 1534
1527 1527 1527 1527 1527 1527 1527 1527 1527 1527 1527 1527 1527 1527 1527 1527 1527 1527 1527 1526 1526 1525 1526 1526 1526 1527 1527 1527 1527 1528 1528 1529 1529 1529 1530 1530 1531 1532 1532 1533 1533 1534 1535
1527 1526 1527 1527 1527 1527 1527 1527 1527 1527 1527 1527 1527 1526 1527 1527 1527 1526 1526 1526 1525 1526 1526 1526 1527 1527 1527 1527 1528 1528 1529 1529 1529 1530 1530 1531 1532 1532 1533 1533 1534 1535 1535
1526 1527 1527 1526 1527 1526 1526 1526 1527 1527 1527 1527 1527 1527 1527 1528 1527 1526 1526 1526 1526 1526 1526 1527 1527 1527 1527 1527 1528 1528 1529 1529 1530 1530 1531 1531 1532 1533 1533 1534 1534 1535 1536
1526 1526 1526 1526 1526 1526 1526 1526 1526 1526 1527 1527 1527 1528 1527 1527 1527 1527 1526 1526 1526 1526 1526 1527 1527 1527 1527 1527 1527 1528 1529 1529 1530 1530 1531 1531 1532 1532 1533 1534 1535 1535 1536
1526 1526 1526 1526 1526 1526 1526 1526 1526 1526 1526 1526 1527 1527 1528 1527 1527 1526 1527 1526 1526 1526 1526 1526 1527 1527 1527 1527 1527 1528 1528 1529 1529 1530 1530 1531 1531 1532 1533 1534 1535 1535 1536
1525 1525 1525 1526 1526 1525 1525 1525 1525 1525 1526 1526 1526 1526 1526 1527 1527 1526 1526 1526 1525 1525 1526 1526 1526 1526 1526 1526 1526 1527 1527 1528 1529 1529 1530 1530 1531 1532 1533 1533 1534 1535 1536
1524 1524 1524 1525 1525 1525 1525 1525 1525 1525 1525 1525 1525 1525 1526 1526 1526 1526 1525 1525 1524 1524 1524 1525 1525 1525 1525 1525 1525 1525 1526 1527 1528 1528 1529 1529 1530 1531 1532 1533 1534 1534 1535
1523 1523 1523 1524 1524 1524 1524 1524 1524 1524 1524 1524 1524 1524 1524 1525 1525 1525 1524 1524 1523 1523 1523 1523 1524 1523 1523 1524 1524 1524 1525 1525 1526 1527 1527 1528 1529 1530 1531 1532 1533 1534 1534
1522 1522 1523 1523 1523 1523 1523 1523 1522 1523 1523 1523 1523 1523 1523 1523 1523 1523 1523 1523 1522 1522 1522 1522 1522 1522 1522 1522 1522 1523 1523 1524 1524 1525 1526 1527 1527 1529 1530 1531 1532 1533 1533
1520 1521 1521 1522 1522 1522 1522 1521 1521 1521 1521 1521 1521 1521 1521 1521 1521 1522 1522 1522 1522 1521 1520 1520 1520 1520 1520 1520 1520 1521 1521 1522 1523 1523 1524 1525 1526 1527 1528 1529 1530 1531 1532
1519 1519 1519 1520 1520 1520 1520 1520 1520 1520 1520 1520 1520 1520 1520 1520 1520 1520 1520 1520 1520 1520 1518 1518 1518 1518 1518 1518 1518 1518 1519 1520 1521 1521 1522 1523 1524 1525 1526 1527 1528 1530 1531
1517 1517 1518 1518 1518 1518 1518 1518 1518 1518 1518 1518 1518 1518 1517 1518 1518 1517 1517 1517 1517 1517 1516 1516 1516 1516 1516 1516 1516 1516 1516 1517 1518 1519 1520 1521 1522 1523 1524 1525 1526 1528 1529
1514 1515 1515 1516 1516 1516 1516 1516 1516 1516 1516 1516 1516 1516 1515 1515 1515 1515 1515 1515 1514 1515 1515 1513 1513 1513 1513 1513 1514 1513 1513 1514 1515 1516 1517 1518 1519 1520 1522 1523 1524 1525 1526
1511 1512 1513 1513 1514 1514 1514 1514 1515 1514 1514 1514 1514 1514 1513 1513 1513 1512 1512 1512 1512 1512 1512 1511 1510 1511 1511 1511 1511 1511 1511 1511 1512 1513 1514 1515 1516 1518 1519 1520 1521 1522 1523
1508 1509 1510 1511 1511 1511 1511 1512 1512 1512 1511 1511 1511 1511 1511 1511 1510 1509 1509 1508 1509 1509 1509 1508 1508 1508 1508 1508 1508 1508 1508 1509 1509 1510 1511 1512 1514 1515 1516 1517 1517 1519 1520
1505 1506 1507 1507 1508 1508 1508 1508 1508 1508 1508 1508 1508 1508 1508 1508 1507 1507 1506 1505 1505 1505 1505 1505 1505 1505 1504 1504 1504 1505 1505 1505 1506 1507 1507 1509 1510 1511 1512 1513 1514 1515 1516
1502 1503 1504 1504 1505 1505 1505 1505 1505 1505 1505 1505 1505 1505 1505 1504 1504 1504 1503 1503 1503 1502 1502 1502 1501 1501 1500 1501 1501 1501 1502 1502 1502 1504 1504 1505 1506 1507 1508 1509 1510 1511 1512
1499 1500 1500 1501 1501 1501 1501 1501 1501 1501 1501 1501 1502 1501 1501 1501 1501 1500 1500 1499 1499 1499 1499 1499 1498 1497 1497 1497 1497 1498 1498 1498 1498 1500 1501 1501 1503 1503 1504 1505 1506 1507 1509
1496 1496 1497 1497 1497 1497 1498 1498 1498 1498 1498 1498 1498 1498 1498 1497 1497 1497 1496 1496 1495 1495 1495 1495 1494 1494 1494 1494 1494 1494 1494 1494 1495 1497 1498 1498 1499 1500 1501 1501 1503 1504 1505
1492 1493 1493 1494 1494 1493 1494 1494 1494 1494 1494 1494 1494 1494 1494 1494 1494 1493 1493 1492 1492 1491 1492 1492 1491 1490 1490 1490 1490 1490 1490 1491 1491 1492 1494 1495 1495 1496 1497 1497 1499 1500 1501
1489 1489 1490 1490 1490 1490 1490 1490 1490 1490 1489 1489 1489 1490 1490 1490 1490 1490 1489 1489 1488 1488 1487 1487 1487 1486 1486 1486 1486 1486 1486 1487 1487 1488 1489 1491 1491 1492 1492 1493 1494 1495 1496